User: anonymous   Login
Location: Goheenville
(40.9070°N, 79.3720°W)
Time: 00:35:13
(UTC-05:00)
Language:

Meteor 2-10 Rocket - Orbit

View from above orbital plane
View from above orbital plane
View from above satellite
View from above satellite

Ground track
Ground track

The orbit data is extracted from the following two-line orbital elements,

1 14453U 83109B   18051.51286109  .00000034  00000-0  83687-5 0  9999
2 14453  81.1655 216.4787 0105872  65.5260 295.6916 14.24690144782883
Epoch (UTC): 20 February 2018 12:18:31
Eccentricity: 0.0105872
inclination: 81.1655°
perigee height: 733 km
apogee height: 885 km
right ascension of ascending node: 216.4787°
argument of perigee: 65.5260°
revolutions per day: 14.24690144
mean anomaly at epoch: 295.6916°
orbit number at epoch: 78288

The dashed part of the orbit path shows where the satellite is in the earth's shadow,  

DLR